This is the latest recevied weather packets stored in our database for station/object WK1F-2. If no packets are shown the sender has not sent any weather packets the latest 10 day(s).
| Time | Temp. | Humidity | Pressure | Rain* | Wind** | Luminosity | Snow |
|---|---|---|---|---|---|---|---|
| 1777988244 | 22.78° C | 64% | 1017.2 hPa | 0 mm | - | - | - |
| 1777987943 | 22.78° C | 64% | 1017.2 hPa | 0 mm | - | - | - |
| 1777987643 | 22.22° C | 65% | 1017.1 hPa | 0 mm | - | - | - |
| 1777987343 | 22.22° C | 66% | 1017.1 hPa | 0 mm | - | - | - |
| 1777987043 | 22.22° C | 69% | 1017.1 hPa | 0 mm | - | - | - |
| 1777986743 | 21.67° C | 69% | 1017 hPa | 0 mm | - | - | - |
| 1777986443 | 21.11° C | 72% | 1016.9 hPa | 0 mm | - | - | - |
| 1777986143 | 21.11° C | 76% | 1016.8 hPa | 0 mm | - | - | - |
| 1777985843 | 20.56° C | 79% | 1016.8 hPa | 0 mm | - | - | - |
| 1777985543 | 20° C | 84% | 1016.8 hPa | 0 mm | - | - | - |
| 1777985243 | 19.44° C | 89% | 1016.7 hPa | 0 mm | - | - | - |
| 1777984943 | 18.89° C | 94% | 1016.7 hPa | 0 mm | - | - | - |
| 1777984643 | 18.33° C | 96% | 1016.8 hPa | 0 mm | - | - | - |
| 1777984343 | 17.78° C | 96% | 1016.8 hPa | 0 mm | - | - | - |
| 1777984043 | 17.22° C | 97% | 1016.9 hPa | 0 mm | - | - | - |
| 1777983743 | 16.67° C | 97% | 1016.8 hPa | 0 mm | - | - | - |
| 1777983443 | 16.11° C | 97% | 1016.8 hPa | 0 mm | - | - | - |
| 1777983143 | 15.56° C | 96% | 1016.7 hPa | 0 mm | - | - | - |
| 1777982843 | 15.56° C | 96% | 1016.6 hPa | 0 mm | - | - | - |
| 1777982543 | 15° C | 96% | 1016.5 hPa | 0 mm | - | - | - |
| 1777982243 | 14.44° C | 96% | 1016.6 hPa | 0 mm | - | - | - |
| 1777981943 | 14.44° C | 96% | 1016.6 hPa | 0 mm | - | - | - |
| 1777981643 | 13.89° C | 96% | 1016.5 hPa | 0 mm | - | - | - |
| 1777981343 | 13.89° C | 96% | 1016.5 hPa | 0 mm | - | - | - |
| 1777981043 | 13.89° C | 96% | 1016.4 hPa | 0 mm | - | - | - |
* Rain latest hour (hover to see other rain measurements)
** Current wind speed in m/s (hover to see current wind gust speed)